Helicity
48 95 238 272 225 173 162 142 126 154 133 101 57 17 -33 -36 36 42 -40 -121 -35 -71 -51 -78 -47 101 290 212 429 452 434 385 441 326 277 302 290 302 362 356 282 222 182 97
100 174 186 142 135 143 141 226 261 218 130 95 54 31 -3 34 36 -53 -37 -38 48 2 -18 -6 -7 88 243 304 348 514 458 433 366 365 335 295 285 307 343 336 226 103 45 56
60 160 234 223 83 123 195 276 287 177 97 59 37 19 56 89 144 232 265 85 81 -9 -70 -2 45 110 268 345 300 381 488 429 352 338 419 316 294 266 304 323 202 176 117 30
91 21 81 78 124 190 164 253 217 116 111 78 46 -19 92 29 34 120 321 258 162 201 159 -1 17 86 240 384 406 313 284 445 372 331 374 354 317 335 319 290 258 187 40 185
105 84 183 149 434 369 282 221 167 124 75 48 35 78 145 111 -47 123 175 181 217 239 320 248 201 69 214 389 415 441 291 281 366 320 301 312 265 268 366 317 254 217 228 160
79 71 95 138 228 167 221 201 147 69 69 39 170 143 248 154 73 36 171 203 2 223 398 351 367 318 286 413 513 460 546 239 287 314 353 307 313 306 334 350 333 277 268 226
110 87 96 150 92 93 26 151 149 38 28 88 187 89 367 212 295 142 118 233 276 74 254 375 444 496 393 462 612 517 536 396 391 239 306 370 413 333 323 400 358 316 271 251
280 278 154 69 82 67 54 54 120 101 63 31 -15 121 154 75 84 199 194 193 197 295 134 201 306 434 431 417 518 486 427 508 531 427 145 283 365 447 376 323 315 318 295 238
322 455 108 45 -5 36 22 25 46 21 -31 -2 77 202 98 -29 100 144 274 278 271 252 220 187 203 211 269 265 486 438 418 622 370 264 210 99 258 342 446 305 240 259 273 228
282 351 104 -75 22 166 26 16 -6 27 6 32 152 190 164 53 107 134 199 335 275 294 328 208 166 160 202 121 235 409 326 389 383 282 291 74 181 254 341 356 276 266 239 191
205 260 216 -42 -63 222 178 55 40 -12 26 72 29 10 87 -28 -20 46 66 155 280 290 332 246 177 204 98 50 50 219 291 271 312 265 307 159 202 257 229 411 322 306 253 216
166 229 184 53 -9 47 -25 69 6 -26 -20 -128 -70 -63 101 -32 -23 -11 77 150 171 151 218 261 216 151 228 69 -14 96 147 180 247 233 231 240 188 254 252 248 359 357 341 256
148 162 191 134 26 94 -1 49 55 -78 -96 13 -81 -24 -4 1 15 31 56 116 136 110 158 243 253 191 223 249 79 71 121 113 116 184 172 153 96 298 266 219 351 380 368 287
78 127 139 117 106 25 -29 15 62 4 -87 -98 -83 -18 36 39 53 61 73 62 66 64 80 186 205 244 193 364 381 227 284 288 126 159 187 217 220 164 243 240 361 365 394 286
107 148 29 49 110 104 47 44 5 0 -45 -36 -77 -67 -20 -47 -14 -8 -16 46 79 88 71 112 213 208 195 284 529 582 513 548 413 144 274 220 159 127 212 271 356 359 405 340
68 153 37 79 78 138 65 33 26 -8 -43 -59 -64 -86 -47 -47 -37 -25 -13 46 102 96 81 85 110 124 115 226 537 688 714 881 790 454 269 308 162 1 75 216 305 420 352 318
75 119 118 98 37 50 60 20 35 -23 -55 -122 -134 -125 -87 -64 -26 -24 9 21 39 48 60 81 94 70 34 52 291 554 776 1017 902 702 498 504 370 281 86 194 116 307 361 326
96 79 92 79 53 98 99 33 43 92 103 4 -82 -108 -153 -128 -88 -56 -10 3 32 9 23 26 43 43 57 -1 110 181 468 866 956 844 692 640 657 578 430 276 131 114 250 345
120 81 89 99 64 93 93 73 101 142 95 12 -52 -65 -114 -105 -105 -53 -4 -18 8 -11 -45 -35 -31 -22 -12 1 -20 132 237 433 786 1069 741 736 709 605 607 467 436 159 156 230
137 66 143 83 93 165 74 76 77 111 53 -13 -59 -105 -118 -118 -108 -69 -20 -5 1 -1 -23 -29 -39 -60 -30 6 -6 40 96 270 491 689 939 806 875 564 525 470 634 319 279 257
229 184 161 71 119 88 34 93 81 35 68 87 3 -82 -100 -71 -84 -73 -37 -11 -17 -19 6 -23 -46 -62 -35 -4 -54 20 16 73 217 394 689 793 903 694 553 449 812 512 470 279
249 287 216 122 105 97 38 106 110 94 81 81 74 -13 -70 -80 -65 -59 -54 -50 -52 -51 -21 -5 -60 -44 -20 -23 -57 7 1 -9 41 196 390 682 604 558 487 580 640 685 523 679
237 216 196 176 138 93 64 120 80 56 73 82 64 83 25 -71 -45 -52 -46 -64 -74 -68 -56 -47 -25 -2 -8 -12 -35 -40 28 -29 -8 67 176 372 394 683 716 557 545 347 569 551
104 55 178 137 66 96 17 115 60 68 80 63 58 65 18 -72 -74 -43 -42 -59 -76 -73 -62 -41 -30 0 3 -2 10 -17 16 -24 -68 25 108 189 416 502 447 534 501 558 443 432
166 82 44 40 40 47 29 114 120 104 58 18 29 -52 -30 -104 -102 -83 -62 -53 -50 -75 -59 -53 -50 -42 -17 10 44 88 24 -34 -58 -37 4 65 115 199 221 324 299 467 459 468
140 122 157 110 55 15 42 64 62 91 49 26 -44 -33 -9 -27 -65 -86 -93 -76 -58 -61 -47 -34 -29 -28 -11 1 24 70 60 -24 -33 -38 -28 14 38 85 99 100 330 211 195 228
Wind_Speed
56 56 54 56 55 58 62 65 72 73 79 84 89 101 102 101 93 87 75 59 62 61 62 58 53 51 53 61 40 44 39 31 27 26 32 27 27 23 25 25 31 32 27 36
63 56 53 55 58 63 62 71 78 77 83 85 88 100 97 95 86 58 59 62 64 66 64 62 59 55 56 57 56 51 42 37 33 30 33 35 30 27 27 28 32 29 30 54
64 56 69 73 64 68 68 72 82 86 95 87 86 88 77 66 54 58 58 59 60 60 66 67 62 58 55 48 54 65 48 40 36 33 31 39 32 33 33 31 36 32 27 39
59 76 75 72 67 65 71 76 86 87 83 87 83 111 70 66 60 58 61 64 64 67 68 68 66 62 57 57 54 62 74 45 40 38 37 41 44 38 36 33 33 34 33 30
72 77 86 72 74 77 70 88 89 91 95 97 93 67 67 59 62 63 63 62 63 65 69 71 69 64 60 58 56 56 71 67 45 44 44 44 51 36 34 37 34 37 38 38
77 63 72 60 88 75 91 100 101 88 84 95 64 60 57 55 61 63 63 63 63 66 68 67 66 64 60 58 55 52 58 77 63 48 46 48 52 48 35 40 42 41 41 42
89 82 84 87 120 115 100 89 90 83 74 65 50 41 38 48 53 53 58 59 57 60 60 62 63 64 60 59 59 56 58 66 72 75 52 47 46 51 44 42 43 46 46 44
96 112 107 115 82 71 79 63 60 68 60 61 50 32 34 45 53 52 52 54 54 53 56 57 57 59 60 60 62 62 63 70 63 59 80 54 47 47 51 45 43 47 47 47
91 88 93 86 95 72 51 54 62 64 70 61 37 33 42 54 56 55 55 55 55 56 57 59 56 54 54 58 62 66 68 61 64 74 78 84 63 54 52 52 46 46 49 45
76 96 74 80 66 77 66 54 44 41 41 27 27 28 44 52 57 59 60 58 56 57 59 60 58 56 55 56 60 66 64 65 70 75 76 80 70 68 62 56 55 48 51 47
79 82 73 63 55 51 72 46 37 37 27 32 30 35 49 47 53 57 58 60 60 63 63 63 61 58 56 58 61 65 69 69 69 77 82 85 73 72 66 62 60 53 50 53
75 69 76 51 31 47 62 50 39 34 32 26 27 34 50 47 53 55 58 62 62 62 64 64 64 63 62 62 65 68 71 73 77 79 79 80 76 73 76 75 65 59 52 59
75 73 79 62 52 65 57 56 40 28 28 34 35 43 50 50 54 57 59 62 63 65 65 67 67 67 68 70 70 72 74 76 78 79 78 80 85 77 82 82 76 66 56 60
67 64 66 57 40 53 58 61 53 37 35 29 31 42 50 53 56 58 61 63 65 66 61 66 68 69 71 73 74 77 77 77 79 79 81 82 85 89 86 87 81 74 62 66
68 65 60 54 55 56 58 57 54 49 39 36 39 44 51 55 57 57 62 66 67 69 70 67 74 74 74 75 75 78 80 79 80 78 77 76 89 78 90 88 82 81 76 73
65 57 52 42 36 48 53 63 54 49 46 42 44 45 52 57 61 59 66 66 66 66 68 69 73 77 75 76 76 78 80 80 79 75 72 74 82 91 71 88 92 86 80 80
67 57 52 47 37 32 57 55 56 50 48 49 52 53 57 62 65 62 69 67 68 69 70 73 73 74 74 78 75 77 78 80 73 70 67 66 63 74 87 91 97 101 83 82
64 59 45 43 38 45 43 51 51 49 54 53 53 56 57 63 66 64 68 67 69 72 72 73 74 76 75 73 75 76 74 76 69 64 63 57 58 62 74 80 91 95 95 90
58 58 55 46 43 29 49 57 56 44 52 63 60 62 63 68 67 65 71 71 71 71 72 72 73 74 72 69 72 68 70 70 64 63 61 55 55 59 61 65 74 87 86 74
59 56 53 49 42 35 35 55 58 36 38 67 67 69 72 73 73 74 78 76 73 72 71 71 72 68 75 72 69 65 67 67 63 60 59 52 53 55 58 57 69 75 80 80
66 62 59 50 40 29 35 48 45 58 48 50 71 70 71 72 73 78 79 76 74 74 74 71 69 67 75 69 64 62 59 62 64 64 60 54 52 52 48 51 58 66 61 60
62 63 57 47 42 37 31 42 45 38 41 43 46 73 70 71 73 75 76 75 75 75 75 72 70 72 71 66 64 66 64 60 62 59 56 52 47 42 40 42 43 42 46 56
66 55 50 38 34 21 38 41 47 51 54 45 41 51 27 70 75 74 76 72 74 76 75 76 75 73 68 64 62 62 65 62 61 56 52 52 50 48 45 43 38 33 35 40
53 43 41 34 31 33 24 40 46 56 65 58 58 51 28 39 64 73 74 74 76 72 78 76 73 71 69 69 68 63 60 56 55 52 49 50 51 48 45 44 43 43 45 39
49 50 49 35 29 30 22 36 47 59 68 70 72 62 17 41 53 66 72 76 75 75 76 74 73 72 72 71 69 65 61 56 56 53 52 51 48 46 43 41 38 39 39 37
58 53 52 42 25 25 28 39 46 57 62 72 73 73 76 69 63 67 68 71 76 76 75 73 72 71 70 68 66 64 60 61 61 58 54 53 49 48 43 43 40 37 38 39
Wind_Direction
352 337 336 335 331 324 319 315 311 312 312 311 305 297 295 293 288 286 299 306 296 292 296 304 311 318 308 260 228 227 229 225 225 236 230 220 216 211 212 205 198 201 201 217
353 352 347 339 332 325 321 318 313 309 311 309 307 300 301 296 286 299 305 298 295 292 292 297 304 307 312 293 230 226 224 221 228 234 233 232 225 231 218 199 185 192 200 235
347 344 343 339 333 326 321 317 312 309 304 304 306 302 311 312 314 304 305 303 299 295 289 290 297 299 308 309 270 236 227 219 226 232 237 240 234 236 225 200 183 188 197 181
355 343 339 336 331 328 318 320 311 307 308 303 303 289 311 307 300 306 303 295 297 294 292 290 293 294 297 299 292 261 239 223 225 225 227 233 230 227 229 208 198 199 199 198
353 348 342 335 335 331 320 316 307 305 300 301 296 298 297 308 295 298 301 301 299 295 293 290 289 290 290 294 295 273 253 238 227 228 226 225 233 218 228 223 206 199 201 196
355 359 350 346 331 328 321 312 303 301 299 287 303 304 309 300 297 297 303 302 302 303 295 292 289 287 287 292 295 286 271 253 236 226 227 226 228 228 221 220 225 211 205 204
352 354 349 341 325 313 315 314 300 295 294 284 311 313 313 323 310 307 304 302 305 312 304 299 293 287 288 288 291 289 279 267 260 237 228 224 224 225 218 216 210 214 213 213
353 346 350 340 341 334 322 318 302 288 284 282 309 281 310 323 326 317 312 308 301 306 316 309 302 295 288 290 289 289 286 273 263 254 245 231 222 224 223 219 216 215 214 205
352 349 351 355 347 347 346 323 291 280 263 273 287 275 296 330 326 322 316 312 310 306 313 314 310 305 301 293 290 290 289 286 271 263 261 244 236 227 229 222 212 214 222 216
359 347 1 358 6 353 339 308 307 274 277 275 273 290 293 316 323 321 317 313 310 311 311 315 314 310 307 302 295 292 295 288 279 275 267 249 243 239 236 231 224 212 223 216
4 1 1 5 14 10 334 323 300 272 284 273 276 283 312 314 320 321 322 323 317 313 313 313 315 316 314 310 303 299 292 294 285 281 266 256 246 243 240 236 230 219 223 224
13 13 7 12 43 35 338 329 311 286 294 285 279 290 317 323 324 324 323 325 325 322 317 315 315 318 317 314 308 303 300 294 290 284 271 260 247 245 242 238 233 225 212 228
15 18 18 37 40 342 27 349 341 337 305 305 285 284 310 313 323 328 326 326 327 325 321 322 320 322 319 313 309 307 300 297 297 288 279 267 251 246 244 242 236 230 218 226
23 27 32 36 43 35 26 7 358 338 318 308 304 297 313 319 319 322 324 325 327 330 324 328 327 324 323 316 308 307 301 298 297 291 283 266 261 249 247 243 239 231 226 227
26 28 35 52 53 43 30 0 354 353 334 314 303 308 314 319 315 314 323 322 326 329 332 328 332 327 325 323 315 309 305 299 295 293 286 275 260 269 248 244 239 234 232 233
27 27 36 45 48 44 33 9 353 349 342 331 316 305 316 318 322 316 323 324 324 323 327 329 330 333 329 329 320 310 309 301 294 292 289 280 267 262 268 247 241 235 233 235
23 23 22 30 40 50 21 17 7 344 337 326 312 306 311 317 321 318 321 320 321 321 322 326 327 330 332 333 324 318 310 307 297 295 294 287 280 267 266 250 244 232 234 234
21 21 28 27 35 29 39 37 27 6 332 327 320 315 310 311 314 317 318 312 314 321 322 324 326 328 331 331 329 323 312 310 303 301 297 295 287 280 269 264 253 248 239 235
27 21 18 27 26 59 32 21 17 8 340 329 323 318 313 312 312 311 318 316 310 312 318 320 324 330 326 325 332 321 318 313 309 307 306 301 293 287 283 275 262 256 250 248
24 25 26 27 25 29 29 17 20 30 359 340 328 319 315 314 306 306 315 313 312 313 313 314 319 327 326 324 322 318 323 318 317 315 312 311 297 297 287 280 269 269 258 253
18 22 24 24 27 37 30 19 30 20 15 21 342 323 316 313 309 309 312 311 312 312 312 313 312 321 324 315 316 313 317 325 320 323 325 316 311 306 304 299 280 274 269 262
18 19 22 27 27 27 23 16 21 28 25 24 20 339 322 320 317 315 315 311 311 310 311 310 314 313 314 312 314 313 316 320 331 326 323 320 320 322 325 317 305 292 278 261
21 25 22 30 24 19 32 24 9 7 7 18 20 15 359 316 321 319 318 319 317 312 313 310 308 306 309 315 311 308 312 318 323 324 324 325 318 323 324 317 317 319 306 287
15 19 19 15 30 31 27 12 4 356 347 1 4 10 9 296 308 323 324 323 320 318 316 312 311 310 309 311 309 308 302 307 317 316 317 319 326 327 327 326 321 319 333 327
10 18 15 12 19 25 16 9 359 350 336 328 338 306 336 297 300 313 321 323 324 321 319 317 314 309 308 309 309 303 301 309 316 314 318 319 320 317 324 328 333 335 329 322
24 19 14 9 5 7 15 8 4 352 341 328 313 317 327 324 315 311 311 317 322 324 323 320 317 315 312 312 312 311 311 311 312 311 313 314 316 319 320 316 317 328 332 346